Location: Bushey
(51.6333°N, 0.3667°W)
Time: 01:47:14
(UTC+00:00)

Cosmos 2123 Rocket - Pass Details

Date: 03 March 2021
Orbit: 960 x 993 km, 82.9° (Epoch: 11 April)

Event Time Altitude Azimuth Distance (km) Brightness Sun altitude
Rises 20:52:08 0° 350° (N) 3,701 7.5 -28.9°
Reaches altitude 10° 20:54:41 10° 352° (N) 2,744 6.8 -29.2°
Enters shadow 21:00:15 67° 27° (NNE) 1,054 4.0 -29.9°
